Omaha, NE

1:29 PM CST on February 26, 2017 (GMT -0600)
Millard Municipal

Weather History for KMLE - March, 2013

Change the Weather History Date:

Friday, March 29, 2013

  Actual Average (KOFF) Record (KOFF)
Temperature  
Mean Temperature 49 °F -  
Max Temperature 68 °F 54 °F 78 °F (1998)
Min Temperature 30 °F 34 °F 19 °F (2014)
Degree Days  
Heating Degree Days 16    
Moisture  
Dew Point 38 °F    
Average Humidity 69    
Maximum Humidity 100    
Minimum Humidity 31    
Precipitation  
Precipitation 0.00 in - - ()
Sea Level Pressure  
Sea Level Pressure 30.14 in    
Wind  
Wind Speed 4 mph (SE)    
Max Wind Speed 15 mph    
Max Gust Speed 22 mph    
Visibility 10 miles    
Events Thunderstorm    
Averages and records for this station are not official NWS values.
T = Trace of Precipitation, MM = Missing Value Source: NWS Daily Summary

Daily Weather History Graph

Daily Weather History Graph

Search for Another Location

Airport or City:

Trip Planner

Search our weather history database for the weather conditions in past years. The results will help you decide how hot, cold, wet, or windy it might be!

Date:

Astronomy

Mar. 29, 2013 Rise Set
Actual Time 7:12 AM CDT 7:46 PM CDT
Civil Twilight 6:44 AM CDT 8:14 PM CDT
Nautical Twilight 6:11 AM CDT 8:47 PM CDT
Astronomical Twilight 5:38 AM CDT 9:21 PM CDT
Moon 10:50 PM CDT (3/29) 8:20 AM CDT (3/29)
Length of Visible Light 13h 29m
Length of Day
12h 34m
Waning Gibbous, 93% of the Moon is Illuminated
Mar 29
Waning Gibbous
Apr 2
Last Quarter
Apr 10
New
Apr 18
First Quarter
Apr 25
Full

Hourly Weather History & Observations

Time (CDT) Temp. Windchill Dew Point Humidity Pressure Visibility Wind Dir Wind Speed Gust Speed Precip Events Conditions
12:15 AM 36.9 °F - 35.2 °F 94% 30.20 in 10.0 mi Calm Calm - N/A   Clear
12:35 AM 36.0 °F - 35.4 °F 98% 30.20 in 10.0 mi Calm Calm - N/A   Clear
12:55 AM 36.5 °F - 35.6 °F 97% 30.21 in 10.0 mi Calm Calm - N/A   Clear
1:15 AM 36.0 °F - 35.2 °F 97% 30.20 in 10.0 mi Calm Calm - N/A   Clear
1:35 AM 35.6 °F - 35.1 °F 98% 30.20 in 10.0 mi Calm Calm - N/A   Clear
1:55 AM 34.3 °F - 34.2 °F 99% 30.20 in 10.0 mi Calm Calm - N/A   Clear
2:15 AM 34.7 °F - 34.7 °F 100% 30.19 in 10.0 mi Calm Calm - N/A   Clear
2:35 AM 33.8 °F - 33.8 °F 100% 30.19 in 10.0 mi Calm Calm - N/A   Clear
2:55 AM 34.0 °F - 33.8 °F 99% 30.19 in 10.0 mi Calm Calm - N/A   Clear
3:15 AM 34.2 °F - 34.0 °F 99% 30.18 in 10.0 mi Calm Calm - N/A   Clear
3:35 AM 34.0 °F - 34.0 °F 100% 30.18 in 10.0 mi Calm Calm - N/A   Clear
3:55 AM 32.7 °F - 32.7 °F 100% 30.18 in 10.0 mi Calm Calm - N/A   Clear
4:15 AM 32.7 °F - 32.7 °F 100% 30.18 in 10.0 mi Calm Calm - N/A   Clear
4:35 AM 32.0 °F - 32.0 °F 100% 30.18 in 10.0 mi Calm Calm - N/A   Clear
4:55 AM 32.0 °F - 32.0 °F 100% 30.18 in 7.0 mi Calm Calm - N/A   Clear
5:15 AM 32.0 °F - 32.0 °F 100% 30.18 in 10.0 mi Calm Calm - N/A   Clear
5:35 AM 32.0 °F - 32.0 °F 100% 30.18 in 10.0 mi Calm Calm - N/A   Clear
5:55 AM 31.8 °F - 31.8 °F 100% 30.18 in 10.0 mi Calm Calm - N/A   Clear
6:15 AM 31.1 °F - 31.1 °F 100% 30.19 in 7.0 mi Calm Calm - N/A   Clear
6:35 AM 30.7 °F - 30.7 °F 100% 30.20 in 5.0 mi Calm Calm - N/A   Clear
6:55 AM 30.4 °F - 30.4 °F 100% 30.20 in 5.0 mi Calm Calm - N/A   Clear
7:15 AM 30.7 °F - 30.7 °F 100% 30.21 in 5.0 mi Calm Calm - N/A   Scattered Clouds
7:35 AM 30.2 °F - 30.2 °F 100% 30.21 in 4.0 mi Calm Calm - N/A   Scattered Clouds
7:55 AM 32.0 °F - 32.0 °F 100% 30.21 in 7.0 mi Calm Calm - N/A   Clear
8:15 AM 34.5 °F - 34.5 °F 100% 30.22 in 7.0 mi Calm Calm - N/A   Clear
8:35 AM 37.9 °F - 37.9 °F 100% 30.22 in 7.0 mi Calm Calm - N/A   Clear
8:55 AM 40.1 °F 36.9 °F 39.9 °F 99% 30.22 in 10.0 mi SE 4.6 mph - N/A   Clear
9:15 AM 41.7 °F 38.0 °F 40.3 °F 95% 30.23 in 10.0 mi SE 5.8 mph - N/A   Scattered Clouds
9:35 AM 43.7 °F 41.1 °F 41.4 °F 91% 30.23 in 10.0 mi SE 4.6 mph - N/A   Scattered Clouds
9:55 AM 45.9 °F 44.6 °F 42.3 °F 87% 30.23 in 10.0 mi ESE 3.5 mph - N/A   Clear
10:15 AM 49.1 °F - 43.3 °F 81% 30.22 in 10.0 mi SE 8.1 mph - N/A   Clear
10:35 AM 51.3 °F - 44.6 °F 78% 30.22 in 10.0 mi SE 9.2 mph - N/A   Clear
10:55 AM 52.5 °F - 44.4 °F 74% 30.22 in 10.0 mi SSE 12.7 mph - N/A   Clear
11:15 AM 54.1 °F - 45.0 °F 71% 30.22 in 10.0 mi SE 10.4 mph 16.1 mph N/A   Clear
11:55 AM 56.7 °F - 45.1 °F 65% 30.21 in 10.0 mi SSE 10.4 mph - N/A   Clear
12:15 PM 58.6 °F - 45.3 °F 61% 30.20 in 10.0 mi SE 11.5 mph - N/A   Clear
12:35 PM 59.9 °F - 44.4 °F 57% 30.19 in 10.0 mi SSE 15.0 mph - N/A   Clear
12:55 PM 60.1 °F - 43.7 °F 55% 30.18 in 10.0 mi SE 11.5 mph 17.3 mph N/A   Clear
1:15 PM 61.2 °F - 44.8 °F 55% 30.17 in 10.0 mi SE 13.8 mph 21.9 mph N/A   Clear
1:35 PM 62.2 °F - 46.0 °F 55% 30.16 in 10.0 mi SE 10.4 mph 21.9 mph N/A   Clear
1:55 PM 63.5 °F - 46.0 °F 53% 30.15 in 10.0 mi SE 10.4 mph 18.4 mph N/A   Clear
2:15 PM 64.2 °F - 46.2 °F 52% 30.14 in 10.0 mi South 15.0 mph - N/A   Clear
2:35 PM 64.6 °F - 59.2 °F 83% 30.13 in 10.0 mi SSE 12.7 mph - N/A   Clear
2:55 PM 65.5 °F - 37.4 °F 35% 30.12 in 10.0 mi SSE 9.2 mph 17.3 mph N/A   Clear
3:15 PM 65.8 °F - 37.6 °F 35% 30.11 in 10.0 mi SSE 10.4 mph - N/A   Clear
3:35 PM 66.9 °F - 37.0 °F 33% 30.10 in 10.0 mi SSE 11.5 mph 17.3 mph N/A   Clear
3:55 PM 67.3 °F - 36.0 °F 32% 30.10 in 10.0 mi SSE 12.7 mph 17.3 mph N/A   Clear
4:15 PM 67.5 °F - 35.8 °F 31% 30.09 in 10.0 mi SE 13.8 mph 20.7 mph N/A   Clear
4:35 PM 67.8 °F - 37.4 °F 33% 30.09 in 10.0 mi SSE 10.4 mph - N/A   Clear
4:55 PM 68.0 °F - 38.5 °F 34% 30.08 in 10.0 mi SSE 11.5 mph - N/A   Clear
5:15 PM 67.8 °F - 38.7 °F 34% 30.08 in 10.0 mi SE 11.5 mph - N/A   Clear
5:35 PM 68.0 °F - 38.7 °F 34% 30.07 in 10.0 mi SSE 9.2 mph 16.1 mph N/A   Clear
5:55 PM 68.0 °F - 38.3 °F 34% 30.07 in 10.0 mi SE 11.5 mph 17.3 mph N/A   Clear
6:15 PM 67.6 °F - 38.1 °F 34% 30.07 in 10.0 mi SE 9.2 mph - N/A   Clear
6:35 PM 66.4 °F - 37.6 °F 35% 30.06 in 10.0 mi SE 9.2 mph - N/A   Clear
6:55 PM 64.4 °F - 38.1 °F 38% 30.06 in 10.0 mi SE 8.1 mph - N/A   Clear
7:15 PM 62.2 °F - 38.3 °F 41% 30.06 in 10.0 mi SE 5.8 mph - N/A   Clear
7:35 PM 61.3 °F - 38.3 °F 43% 30.06 in 10.0 mi SE 5.8 mph - N/A   Clear
7:55 PM 60.1 °F - 38.8 °F 45% 30.05 in 10.0 mi SE 6.9 mph - N/A   Clear
8:15 PM 58.8 °F - 38.3 °F 47% 30.05 in 10.0 mi SE 5.8 mph - N/A   Scattered Clouds
8:35 PM 58.8 °F - 37.8 °F 46% 30.05 in 10.0 mi SE 6.9 mph - N/A   Clear
8:55 PM 57.0 °F - 37.4 °F 48% 30.05 in 10.0 mi SE 5.8 mph - N/A   Clear
9:15 PM 56.8 °F - 37.6 °F 49% 30.05 in 10.0 mi SE 6.9 mph - N/A   Clear
9:35 PM 57.4 °F - 38.1 °F 49% 30.05 in 10.0 mi SE 9.2 mph - N/A   Mostly Cloudy
9:55 PM 57.7 °F - 37.8 °F 47% 30.06 in 10.0 mi SE 9.2 mph - N/A   Overcast
10:15 PM 57.7 °F - 37.8 °F 47% 30.06 in 10.0 mi SE 9.2 mph - N/A   Overcast
10:35 PM 56.8 °F - 38.1 °F 50% 30.04 in 10.0 mi SE 10.4 mph 16.1 mph N/A   Overcast
10:55 PM 57.7 °F - 37.6 °F 47% 30.04 in 10.0 mi SE 9.2 mph - N/A   Overcast
11:15 PM 58.5 °F - 37.8 °F 46% 30.05 in 10.0 mi SE 12.7 mph - N/A Thunderstorm Overcast
11:35 PM 58.1 °F - 37.6 °F 46% 30.06 in 10.0 mi SE 9.2 mph - N/A   Overcast
11:55 PM 58.1 °F - 37.8 °F 47% 30.07 in 10.0 mi SE 10.4 mph - N/A Thunderstorm Overcast